Погода в Магдагачи

Погода в Магдагачи : погода сейчас, прогноз погоды и архив. Всё, что Вы хотите узнать о погоде в Магдагачи!

Хотите узнать прогноз погоды в Магдагачи? Тогда Вам сюда: Погода в Магдагачи

Поиск расширенной информации на нашем сайте:

Другие новости

Новости СМИ2

Главная страница сайта

Новости сайта

03.07.2017

Напоминаем, что на нашем специализированном сайте Метеоцентр.Азия вы можете получить высокодетализированные автоматические прогнозы погоды по пунктам России, СНГ и мира в авиационном формате (включающие направление и скорость ветра, видимость, явления погоды, количество и форму облачности, нижнюю и верхнюю границу облачности).


Погода в Магдагачи - сегодня

Время (UTC), дата Ветер
(°,м/с) 
Видим.   Явления Облачность Т
(°С)
Тd
(°С)
f(%) Тe
(°С)
Pmin
(гПа)
dP
(гПа)
Po
(мм)
O2
(г/м3)
Тmin Tmax R s Состояние
почвы
15 18.04.18 140 (ЮВ) 20000 м    4/0 верхняя 
[Ci fib]
+2.2 -8.3 46 +2  1007.7  -0.1  723  290           
18 18.04.18 160 (Ю) 20000 м    ясно 
+1.6 -7.9 49 +1  1007.4  -0.4  722  290           
21 18.04.18 160 (Ю) 20000 м    6/6 600 м 
+2.6 -7.2 48 +2  1006.4  33  722  289           
00 19.04.18 160 (Ю) 20000 м    10/6 600 м кучево-дожд., средняя, верхняя 
[Cb calv|Ac trans|Ci fib]
+7.4 -5.9 38 +6  1003.9  -1.6  721  283  +1        сухая 
03 19.04.18 140 (ЮВ) 20000 м    10/6 600 м кучево-дожд., средняя, верхняя 
[Cb calv|Ac trans|Ci fib]
+9.4 -6.3 32 +8  1004.7  721  282           
15 19.04.18 320 (СЗ) 20000 м    10/0 средняя, верхняя 
[Ac trans|Ci fib]
+1.8 -7.1 52 1013.3  726  291           
18 19.04.18 290 (З) 20000 м    8/0 средняя, верхняя 
[Ac trans|Ci fib]
-0.4 -7.5 59 -1  1014.1  1.1  727  294           
21 19.04.18 290 (З) 20000 м    3/0 верхняя 
[Ci fib]
-1.6 -7.2 66 -3  1014.3  727  295           
00 20.04.18 360 (С) 20000 м    6/0 средняя, верхняя 
[Ac trans|Ci fib]
+3.9 -6.1 48 +3  1013.1  -0.3  727  289  -1.8        влажная 
03 20.04.18 360 (С) 20000 м    8/3 1000 м средняя, верхняя 
[Sc|Ac trans|Ci fib]
+7.7 -5.8 38 +6  1011.4  -1  726  285           
06 20.04.18 270 (З) 20000 м    9/4 600 м кучево-дожд., средняя, верхняя 
[Cb calv|Ac trans|Ci fib]
+10 -5.6 33 +8  1009  -2  724  282           
09 20.04.18 290 (З) 20000 м    8/4 600 м кучево-дожд., средняя, верхняя 
[Cb calv|Ac trans|Ci fib]
+9.4 -6.3 32 +8  1008.7  -0.3  724  283           
15 20.04.18 320 (СЗ) 20000 м    5/0 средняя, верхняя 
[Ac trans|Ci fib]
+2.4 -7.5 48 +2  1016.3  2.2  729  292           
18 20.04.18 290 (З) 20000 м    4/0 верхняя 
[Ci fib]
+0 -8.3 54 -1  1018.9  730  295           
21 20.04.18 290 (З) 20000 м    4/0 верхняя 
[Ci fib]
-2 -11 50 -5  1020.9  1.6  732  298           
03 21.04.18 320 (СЗ) 8{10}  20000 м    ясно 
+5.1 -8.1 38 +2  1022.8  0.8  734  291           
06 21.04.18 290 (З) 10-10{12}  20000 м    ясно 
+7.7 -7.6 33 +5  1021.6  -0.7  733  288           
09 21.04.18 290 (З) 10-10{12}  20000 м    ясно 
+8.2 -8.7 29 +5  1021.4  733  288           
12 21.04.18 320 (СЗ) 4{12}  20000 м    5/0 средняя, верхняя 
[Ac trans|Ci fib]
+3.7 -10.8 34 +2  1023.9  1.6  734  293    +8.6       
15 21.04.18 320 (СЗ) 20000 м    5/0 средняя, верхняя 
[Ac trans|Ci fib]
-2 -13.1 42 -3  1026.2  1.3  735  300           
18 21.04.18 050 (СВ) 20000 м    3/0 верхняя 
[Ci fib]
-5.4 -13 55 -7  1027.8  736  304           
21 21.04.18 тихо ()   20000 м    3/0 верхняя 
[Ci fib]
-7.6 -12.1 70 -8  1029.3  1.1  737  307           
03 22.04.18 290 (З) 20000 м    ясно 
+9 -7 32 +8  1027.3  -1.8  737  288           
06 22.04.18 270 (З) 20000 м    6/0 верхняя 
[Ci fib]
+12.8 -4.6 29 +12  1024.2  -2.3  736  284           
09 22.04.18 270 (З) 20000 м    6/0 верхняя 
[Ci ing]
+13.4 -5.6 26 +14  1021.9  -2.1  734  282           
Время (UTC), дата Ветер
(°,м/с) 
Видим.   Явления Облачность Т
(°С)
Тd
(°С)
f(%) Тe
(°С)
Pmin
(гПа)
dP
(гПа)
Po
(мм)
O2
(г/м3)
Тmin Tmax R s Состояние
почвы

Для получения пояснительной информации подведите курсор к названию столбца.

ПОГОДА в Магдагачи - архив

Всё, что Вы хотите узнать о погоде в Магдагачи - удобно и подробно!

Выберите нужную дату (начиная с 1 января 2015* года) и нажмите кнопку "Найти".
Будут отображены архивные сводки погоды по пункту Магдагачи, начиная с указанной даты.


Отображать данные в формате CSV (для использования в таблицах Excel)


Внимание! Наш архив погоды предназначен исключительно для личного некоммерческого использования в познавательных целях. Если Вам необходимы официальные справки о состоянии погоды (для производственных, юридических, коммерческих и т.п. целей), обращайтесь в органы Росгидромета.

*Примечание: данная дата относится к архиву по метеостанциям СССР (Россия, СНГ, Балтия).
Архив по метеостанциям Зарубежной Европы и Азии (кроме Китая) хранится 10 дней, по другим регионам земного шара (Китай, Африка, Америка, Австралия, Океания) - 1 день.

Магдагачи - район местоположения метеостанции


Название, широта, долгота, высота метеостанции:
Магдагачи 53.5°ш. 125.8°д. 370 м над ур. моря [Российская Федерация]

Дополнительная информация

В oтличие oт бoльшинства пoгoдных сайтoв мы публикуем пoдрoбную метеoинфoрмацию в детальнoм прoфессиoнальнoм фoрмате.

Характеристики температуры и влажнoсти вoздуха измеряются на высoте 2 м в тени вдали oт зданий и деревьев.
Скoрoсть ветра измеряется на высoте 10 м (на урoвне рoста челoвека скoрoсть ветра ниже в 1.5-2 раза). Если метеoстанция нахoдится в гoрoде или в лесу, тo скoрoсть ветра занижена на 2-4 м/с пo сравнению с oткрытым местoм. Скoрoсть ветра над акватoриями крупных рек и oзёр, а также на вершинах хoлмoв на 2-5 м/с выше, чем в oбычных услoвиях.
Атмoсфернoе давление в разных тoчках местнoсти мoжет значительнo oтличаться oт давления на метеoстанции, в зависимoсти oт услoвий рельефа (при пoдъёме на 10 м давление пoнижается примернo на 1 мм рт.ст.).